Plattsburgh, NY

12:14 AM EST on December 16, 2019 (GMT -0500)
Plattsburgh International

Weather History for KPBG - October, 2019

Change the Weather History Date:

Thursday, October 3, 2019

  Actual Average Record
Temperature  
Mean Temperature 44 °F 52 °F  
Max Temperature 50 °F 62 °F 85 °F (1967)
Min Temperature 39 °F 42 °F 34 °F (1975)
Degree Days  
Heating Degree Days 20 13  
Month to date heating degree days 30 38  
Since 1 July heating degree days 222 273  
Cooling Degree Days 0 0  
Month to date cooling degree days 0 0  
Year to date cooling degree days 406 345  
Moisture  
Dew Point 39 °F    
Average Humidity 78    
Maximum Humidity 93    
Minimum Humidity 61    
Precipitation  
Precipitation 0.01 in - 0.95 in (1954)
Month to date precipitation 0.76 0.00  
Year to date precipitation 22.38  
Sea Level Pressure  
Sea Level Pressure 30.11 in    
Wind  
Wind Speed 6 mph ()    
Max Wind Speed 18 mph    
Max Gust Speed 24 mph    
Visibility 9.6 miles    
Events Rain    
T = Trace of Precipitation, MM = Missing Value Source: Averaged Metar Reports

Daily Weather History Graph

Daily Weather History Graph

Search for Another Location

Airport or City:

Astronomy

Oct. 03, 2019 Rise Set
Actual Time 6:53 AM EDT 6:31 PM EDT
Civil Twilight 6:24 AM EDT 7:00 PM EDT
Nautical Twilight 5:50 AM EDT 7:34 PM EDT
Astronomical Twilight 5:16 AM EDT 8:08 PM EDT
Moon 12:34 PM EDT (10/3) 9:55 PM EDT (10/3)
Length of Visible Light 12h 35m
Length of Day
11h 37m
Waxing Crescent, 29% of the Moon is Illuminated
Oct 3
Waxing Crescent
Oct 5
First Quarter
Oct 13
Full
Oct 21
Last Quarter
Oct 27
New

Hourly Weather History & Observations

Time (EDT) Temp. Windchill Dew Point Humidity Pressure Visibility Wind Dir Wind Speed Gust Speed Precip Events Conditions
12:53 AM 43.0 °F 38.2 °F 35.1 °F 74% 30.21 in 10.0 mi NNW 8.1 mph - N/A   Mostly Cloudy
1:53 AM 41.0 °F 37.1 °F 34.0 °F 76% 30.21 in 10.0 mi NW 5.8 mph - N/A   Clear
2:53 AM 39.9 °F 35.1 °F 34.0 °F 79% 30.21 in 10.0 mi NW 6.9 mph - N/A   Clear
3:53 AM 39.9 °F 35.8 °F 34.0 °F 79% 30.19 in 10.0 mi NW 5.8 mph - N/A   Clear
4:53 AM 39.0 °F 34.0 °F 34.0 °F 82% 30.20 in 10.0 mi NW 6.9 mph - N/A   Clear
5:53 AM 39.9 °F 35.8 °F 35.1 °F 83% 30.23 in 10.0 mi NW 5.8 mph - N/A   Clear
6:53 AM 39.9 °F 35.1 °F 35.1 °F 83% 30.24 in 10.0 mi NW 6.9 mph - N/A   Clear
7:53 AM 41.0 °F 39.0 °F 35.1 °F 79% 30.25 in 10.0 mi WNW 3.5 mph - N/A   Clear
8:53 AM 43.0 °F 40.3 °F 35.1 °F 74% 30.25 in 10.0 mi NW 4.6 mph - N/A   Clear
9:53 AM 45.0 °F 42.6 °F 37.0 °F 74% 30.24 in 10.0 mi North 4.6 mph - N/A   Clear
10:53 AM 46.0 °F - 36.0 °F 68% 30.22 in 10.0 mi Calm Calm - N/A   Clear
11:53 AM 48.9 °F - 37.0 °F 64% 30.20 in 10.0 mi NNW 5.8 mph - N/A   Clear
12:53 PM 48.0 °F - 36.0 °F 63% 30.16 in 10.0 mi NE 5.8 mph - N/A   Clear
1:53 PM 48.9 °F - 36.0 °F 61% 30.14 in 10.0 mi Calm Calm - N/A   Partly Cloudy
2:53 PM 48.9 °F - 37.9 °F 66% 30.10 in 10.0 mi ESE 5.8 mph - 0.00 in   Overcast
3:53 PM 50.0 °F - 37.9 °F 63% 30.08 in 10.0 mi East 4.6 mph - 0.00 in Rain Light Rain
4:53 PM 50.0 °F - 39.9 °F 68% 30.07 in 10.0 mi East 4.6 mph - 0.00 in   Overcast
5:53 PM 50.0 °F - 41.0 °F 71% 30.05 in 10.0 mi ESE 3.5 mph - N/A   Overcast
6:21 PM 50.0 °F - 41.0 °F 71% 30.03 in 10.0 mi ESE 4.6 mph - N/A   Overcast
6:53 PM 50.0 °F - 43.0 °F 77% 30.02 in 10.0 mi South 6.9 mph - N/A   Overcast
7:19 PM 48.9 °F - 45.0 °F 86% 30.01 in 10.0 mi South 8.1 mph - N/A   Overcast
7:40 PM 48.9 °F - 46.0 °F 90% 30.01 in 10.0 mi South 6.9 mph - 0.00 in Rain Light Rain
7:49 PM 48.2 °F - 46.4 °F 93% 30.00 in 9.0 mi South 10.4 mph - 0.00 in Rain Light Rain
7:53 PM 48.9 °F - 46.0 °F 90% 30.01 in 8.0 mi SSE 12.7 mph - 0.00 in Rain Light Rain
8:53 PM 48.9 °F - 46.0 °F 90% 29.97 in 9.0 mi South 10.4 mph - 0.00 in Rain Light Rain
9:53 PM 48.9 °F - 46.0 °F 90% 29.95 in 10.0 mi South 10.4 mph 19.6 mph 0.01 in   Overcast
10:53 PM 48.9 °F - 46.0 °F 90% 29.92 in 6.0 mi South 12.7 mph - 0.00 in Rain Light Rain
11:53 PM 48.9 °F - 46.0 °F 90% 29.89 in 8.0 mi South 10.4 mph - 0.00 in Rain Light Rain